Torna al catalogo

STARLINK-1094

AttivoComunicazioniVLEO
NORAD 44941·PAYLOAD·🇺🇸 United States

Lanciato Jan 7, 2020 da Cape Canaveral Space Force Station

Loading…

Prossimi Passaggi (prossime 24 ore)

TLE

AggiornatoSource: CelesTrak SupGP

Epoca: Sep 15, 2026, 01:38 UTC

1 44941C 20001AD  26258.06854167  .00093320  00000+0  87447-3 0  2582
2 44941  53.1452 130.5878 0003310  68.5520  60.4088 15.66506038    16

Traccia STARLINK-1094 in tempo reale con AllMySat

Download on the App Store